Hourly Data Report for October 16, 2014

All times are specified in Local Standard Time (LST). Add 1 hour to adjust for Daylight Saving Time where and when it is observed.

TORONTO INTL A
ONTARIO

43°40'36.000" N
79°37'50.000" W
173.40 m
6158731
71624
YYZ

Download Data

Hourly Data (October 2014)
Hourly Data Report for October 16, 2014
Temp Definition
°C
Dew Point Temp Definition
°C
Rel Hum Definition
%
Wind Dir Definition
10's deg

Wind Spd Definition
km/h
Visibility Definition
km
Stn Press Definition
kPa
Hmdx Definition


Wind Chill Definition


Weather Definition


TIME
00:00 Legend Double Dagger 13.1 12.3 95 35 4 8.1 98.74     Fog
01:00 Legend Double Dagger 13.6 12.8 95 1 7 8.1 98.69     Fog
02:00 Legend Double Dagger 14.0 13.1 94 35 8 8.1 98.63     Fog
03:00 Legend Double Dagger 14.1 13.3 95 5 4 6.4 98.57     Fog
04:00 Legend Double Dagger 14.3 13.7 96 35 6 3.2 98.53     Fog
05:00 Legend Double Dagger 14.2 13.6 96 31 10 6.4 98.52     Fog
06:00 Legend Double Dagger 14.6 14.0 96 36 7 6.4 98.53     Fog
07:00 Legend Double Dagger 14.6 13.7 94 35 11 6.4 98.51     Fog
08:00 Legend Double Dagger 14.8 13.9 94 31 10 6.4 98.50     Fog
09:00 Legend Double Dagger 15.4 14.0 91 32 7 6.4 98.46     Fog
10:00 Legend Double Dagger 15.7 13.9 89 31 8 12.9 98.44     Cloudy
11:00 Legend Double Dagger 16.3 14.2 87 32 6 16.1 98.41     LegendNANA
12:00 Legend Double Dagger 18.4 14.2 76 22 5 24.1 98.35     LegendNANA
13:00 Legend Double Dagger 18.7 12.5 67 19 8 24.1 98.26     Mostly Cloudy
14:00 Legend Double Dagger 19.3 14.0 71 14 16 24.1 98.21     LegendNANA
15:00 Legend Double Dagger 18.6 13.3 71 20 7 24.1 98.16     LegendNANA
16:00 Legend Double Dagger 18.0 12.9 72 33 18 24.1 98.20     Mostly Cloudy
17:00 Legend Double Dagger 17.4 13.0 75 32 13 24.1 98.19     Rain Showers
18:00 Legend Double Dagger 15.3 13.4 88 26 27 12.9 98.20     Moderate Rain Showers
19:00 Legend Double Dagger 14.5 12.7 89 29 14 16.1 98.29     Thunderstorms,Rain Showers
20:00 Legend Double Dagger 13.7 12.1 90 29 16 24.1 98.29     Rain Showers
21:00 Legend Double Dagger 13.2 11.5 89 27 11 19.3 98.27     Rain Showers
22:00 Legend Double Dagger 12.4 10.7 89 23 10 24.1 98.29     Mostly Cloudy
23:00 Legend Double Dagger 12.1 10.4 89 27 14 24.1 98.30     LegendNANA

Notes on Data Quality.

Legend

  • E = Estimated
  • M = Missing
  • NA = Not Available
  • ‡ = Partner data that is not subject to review by the National Climate Archives
Date modified: